Weather in Omchak

Russia / Magadan District     61°38′27″N   147°52′40″E
temp.,
°C
wind,
m/s
gust,
m/s
humid.,
%
clouds,
%
prec.,
mm/h
press.,
hPa
HPBL,
m
9 march, tue
tue923:00−35w11930 0.0 100819
02:00−35w11930 0.0 100819
05:00−36wnw11940 0.0 100819
08:00−35nw11930 0.0 100919
11:00−29nw11830 0.0 100972
14:00−25nw11781 0.0 1008205
17:00−25nw11885 0.0 100834
20:00−31wsw11970 0.0 101119
10 march, wed
wed1023:00−31wsw11910 0.0 101319
02:00−32wsw01940 0.0 101319
05:00−32wnw11930 0.0 101419
08:00−32w01920 0.0 101519
11:00−25sw00810 0.0 101438
14:00−21s12730 0.0 1012216
17:00−20sse12830 0.0 101220
20:00−25s22840 0.0 101420
11 march, thu
thu1123:00−26s23780 0.0 101420
02:00−27ssw237327 0.0 101420
05:00−28ssw237559 0.0 101419
08:00−27sw227795 0.0 101419
11:00−23sw117592 0.0 101394
14:00−21sw117315 0.0 1011279
17:00−21nnw018715 0.0 101027
20:00−26nnw229760 0.0 101219
12 march, fri
fri1223:00−27nw129770 0.0 101219
02:00−27nw2293100 0.0 101119
05:00−29nw229398 0.0 101019
08:00−28nw2289100 0.0 101119
11:00−24nnw2387100 0.0 1009171
14:00−22nnw338196 0.0 1007331
17:00−22nnw228693 0.0 100780
20:00−29nw229024 0.0 100919
13 march, sat
sat1323:00−31wnw118512 0.0 101019
02:00−32wnw11860 0.0 101019
05:00−33wnw11890 0.0 101019
08:00−33w11880 0.0 100919
11:00−27wnw01770 0.0 100768
14:00−23se11707 0.0 1003209
17:00−22e118251 0.0 1001112
20:00−24ne1191100 0.0 100219